N226DA KSAN-KSNA

Flight info

Callsign N226DA
Flight time 0h 59m
Altitude 6000
Route SANP3
Aircraft DA40/L-VGD/C

Departure

Time 2026-04-26 02:09
Airport San Diego International Airport (KSAN)

Arrival

Time 2026-04-26 03:08
Airport John Wayne Orange County International Airport (KSNA)
Time Latitude Longitude Altitude Speed Heading
2026-04-26 01:41 32.73325 -117.17818 19 ft 0 kts 147°
2026-04-26 01:57 32.73321 -117.17814 18 ft 0 kts 148°
2026-04-26 01:58 32.73320 -117.17813 18 ft 2 kts 137°
2026-04-26 01:58 32.73330 -117.17800 17 ft 3 kts 320°
2026-04-26 01:58 32.73353 -117.17857 19 ft 11 kts 287°
2026-04-26 01:59 32.73348 -117.17919 19 ft 0 kts 243°
2026-04-26 01:59 32.73353 -117.17945 20 ft 4 kts 281°
2026-04-26 01:59 32.73351 -117.17953 20 ft 0 kts 201°
2026-04-26 02:01 32.73344 -117.17956 13 ft 6 kts 204°
2026-04-26 02:01 32.73270 -117.17979 20 ft 15 kts 191°
2026-04-26 02:02 32.73210 -117.17889 18 ft 17 kts 107°
2026-04-26 02:02 32.73175 -117.17747 20 ft 19 kts 106°
2026-04-26 02:02 32.73137 -117.17595 19 ft 11 kts 116°
2026-04-26 02:02 32.73135 -117.17591 19 ft 0 kts 124°
2026-04-26 02:06 32.73100 -117.17554 19 ft 10 kts 147°
2026-04-26 02:06 32.73097 -117.17552 19 ft 0 kts 147°
2026-04-26 02:07 32.73072 -117.17534 20 ft 10 kts 154°
2026-04-26 02:07 32.73016 -117.17566 21 ft 0 kts 285°
2026-04-26 02:07 32.73017 -117.17569 21 ft 2 kts 284°
2026-04-26 02:08 32.73017 -117.17570 21 ft 0 kts 284°
2026-04-26 02:08 32.73029 -117.17624 19 ft 27 kts 284°
2026-04-26 02:08 32.73126 -117.18012 70 ft 61 kts 288°
2026-04-26 02:09 32.73251 -117.18500 278 ft 65 kts 284°
2026-04-26 02:09 32.73354 -117.18993 544 ft 62 kts 282°
2026-04-26 02:09 32.73547 -117.19469 759 ft 70 kts 315°
2026-04-26 02:09 32.73985 -117.19793 1018 ft 74 kts 318°
2026-04-26 02:10 32.74459 -117.20085 1259 ft 77 kts 320°
2026-04-26 02:10 32.74925 -117.20397 1511 ft 77 kts 320°
2026-04-26 02:10 32.75395 -117.20696 1766 ft 78 kts 320°
2026-04-26 02:10 32.75880 -117.21005 2008 ft 79 kts 320°
2026-04-26 02:11 32.76357 -117.21303 2248 ft 77 kts 321°
2026-04-26 02:11 32.76837 -117.21617 2433 ft 80 kts 320°
2026-04-26 02:11 32.77330 -117.21931 2637 ft 82 kts 327°
2026-04-26 02:11 32.77930 -117.21945 2825 ft 89 kts 353°
2026-04-26 02:12 32.78491 -117.22107 3021 ft 83 kts 330°
2026-04-26 02:12 32.79037 -117.22336 3222 ft 82 kts 330°
2026-04-26 02:12 32.79583 -117.22566 3402 ft 84 kts 330°
2026-04-26 02:12 32.80122 -117.22796 3603 ft 82 kts 330°
2026-04-26 02:13 32.80661 -117.23027 3798 ft 83 kts 329°
2026-04-26 02:13 32.81191 -117.23254 4006 ft 81 kts 328°
2026-04-26 02:13 32.81725 -117.23482 4178 ft 81 kts 329°
2026-04-26 02:13 32.82259 -117.23713 4357 ft 83 kts 331°
2026-04-26 02:14 32.82801 -117.23945 4557 ft 83 kts 328°
2026-04-26 02:14 32.83346 -117.24185 4716 ft 82 kts 333°
2026-04-26 02:14 32.83883 -117.24415 4875 ft 83 kts 330°
2026-04-26 02:14 32.84422 -117.24642 5081 ft 83 kts 330°
2026-04-26 02:15 32.84967 -117.24874 5276 ft 82 kts 329°
2026-04-26 02:15 32.85501 -117.25105 5518 ft 82 kts 332°
2026-04-26 02:15 32.86037 -117.25336 5732 ft 83 kts 331°
2026-04-26 02:15 32.86573 -117.25567 5977 ft 81 kts 329°
2026-04-26 02:16 32.87156 -117.25823 6007 ft 97 kts 332°
2026-04-26 02:16 32.87812 -117.26102 5999 ft 104 kts 334°
2026-04-26 02:16 32.88506 -117.26397 5998 ft 108 kts 334°
2026-04-26 02:16 32.89228 -117.26706 5998 ft 112 kts 333°
2026-04-26 02:17 32.89970 -117.27024 5997 ft 114 kts 334°
2026-04-26 02:17 32.90718 -117.27344 5994 ft 114 kts 334°
2026-04-26 02:17 32.91464 -117.27665 5992 ft 114 kts 333°
2026-04-26 02:17 32.92211 -117.27988 5994 ft 115 kts 334°
2026-04-26 02:18 32.92963 -117.28310 5993 ft 115 kts 333°
2026-04-26 02:18 32.93720 -117.28637 6015 ft 115 kts 333°
2026-04-26 02:18 32.94463 -117.28958 6020 ft 116 kts 334°
2026-04-26 02:18 32.95226 -117.29287 6019 ft 117 kts 334°
2026-04-26 02:19 32.95995 -117.29619 6021 ft 118 kts 334°
2026-04-26 02:19 32.96772 -117.29954 6020 ft 119 kts 334°
2026-04-26 02:19 32.97552 -117.30290 6019 ft 119 kts 333°
2026-04-26 02:19 32.98342 -117.30633 6018 ft 123 kts 333°
2026-04-26 02:20 32.99160 -117.30988 6018 ft 127 kts 334°
2026-04-26 02:20 32.99997 -117.31349 6015 ft 129 kts 334°
2026-04-26 02:20 33.00845 -117.31714 6014 ft 130 kts 334°
2026-04-26 02:20 33.01697 -117.32082 6014 ft 131 kts 335°
2026-04-26 02:21 33.02543 -117.32448 6008 ft 131 kts 335°
2026-04-26 02:21 33.03404 -117.32819 6007 ft 132 kts 333°
2026-04-26 02:21 33.04265 -117.33192 6007 ft 132 kts 333°
2026-04-26 02:21 33.05132 -117.33567 6000 ft 132 kts 334°
2026-04-26 02:22 33.05999 -117.33942 6000 ft 133 kts 335°
2026-04-26 02:22 33.06866 -117.34317 6000 ft 133 kts 334°
2026-04-26 02:22 33.07735 -117.34693 6015 ft 133 kts 335°
2026-04-26 02:22 33.08606 -117.35070 6010 ft 134 kts 335°
2026-04-26 02:23 33.09482 -117.35449 6011 ft 134 kts 335°
2026-04-26 02:23 33.10359 -117.35828 6010 ft 134 kts 335°
2026-04-26 02:23 33.11238 -117.36210 6010 ft 135 kts 335°
2026-04-26 02:23 33.12119 -117.36591 6010 ft 135 kts 335°
2026-04-26 02:24 33.13001 -117.36973 6013 ft 135 kts 335°
2026-04-26 02:24 33.13870 -117.37349 6013 ft 135 kts 334°
2026-04-26 02:24 33.14753 -117.37732 6014 ft 135 kts 335°
2026-04-26 02:24 33.15638 -117.38115 6013 ft 135 kts 335°
2026-04-26 02:25 33.16522 -117.38499 6009 ft 135 kts 335°
2026-04-26 02:25 33.17406 -117.38882 6010 ft 135 kts 335°
2026-04-26 02:25 33.18289 -117.39265 6009 ft 135 kts 335°
2026-04-26 02:25 33.19169 -117.39647 6009 ft 135 kts 335°
2026-04-26 02:26 33.20051 -117.40031 6010 ft 135 kts 335°
2026-04-26 02:26 33.20932 -117.40413 6009 ft 135 kts 334°
2026-04-26 02:26 33.21812 -117.40795 6009 ft 135 kts 334°
2026-04-26 02:26 33.22682 -117.41173 6008 ft 135 kts 334°
2026-04-26 02:27 33.23557 -117.41560 6009 ft 134 kts 334°
2026-04-26 02:27 33.24432 -117.41950 6007 ft 134 kts 329°
2026-04-26 02:27 33.25129 -117.42639 6007 ft 129 kts 311°
2026-04-26 02:27 33.25777 -117.43385 6007 ft 129 kts 311°
2026-04-26 02:28 33.26423 -117.44129 6011 ft 129 kts 311°
2026-04-26 02:28 33.27044 -117.44903 6011 ft 129 kts 306°
2026-04-26 02:28 33.27634 -117.45713 6011 ft 129 kts 306°
2026-04-26 02:28 33.28236 -117.46507 6009 ft 129 kts 308°
2026-04-26 02:29 33.28860 -117.47272 6018 ft 128 kts 309°
2026-04-26 02:29 33.29496 -117.48024 6004 ft 128 kts 310°
2026-04-26 02:29 33.30126 -117.48758 6005 ft 128 kts 310°
2026-04-26 02:29 33.30764 -117.49498 6003 ft 128 kts 310°
2026-04-26 02:30 33.31400 -117.50234 6003 ft 127 kts 310°
2026-04-26 02:30 33.32035 -117.50969 6003 ft 127 kts 310°
2026-04-26 02:30 33.32672 -117.51705 6004 ft 127 kts 310°
2026-04-26 02:30 33.33309 -117.52440 6003 ft 127 kts 311°
2026-04-26 02:31 33.33946 -117.53175 6004 ft 127 kts 311°
2026-04-26 02:31 33.34583 -117.53911 6004 ft 127 kts 310°
2026-04-26 02:31 33.35219 -117.54646 6004 ft 127 kts 310°
2026-04-26 02:31 33.35859 -117.55385 6003 ft 128 kts 311°
2026-04-26 02:32 33.36492 -117.56116 6003 ft 128 kts 311°
2026-04-26 02:32 33.37135 -117.56860 6002 ft 129 kts 311°
2026-04-26 02:32 33.37778 -117.57604 6002 ft 129 kts 310°
2026-04-26 02:32 33.38422 -117.58347 6003 ft 129 kts 311°
2026-04-26 02:33 33.39065 -117.59091 6003 ft 129 kts 311°
2026-04-26 02:33 33.39712 -117.59839 6003 ft 130 kts 311°
2026-04-26 02:33 33.40361 -117.60591 6001 ft 130 kts 311°
2026-04-26 02:33 33.41013 -117.61346 5999 ft 130 kts 311°
2026-04-26 02:34 33.41663 -117.62098 5999 ft 130 kts 311°
2026-04-26 02:34 33.42312 -117.62850 6000 ft 130 kts 311°
2026-04-26 02:34 33.42955 -117.63593 5998 ft 130 kts 310°
2026-04-26 02:34 33.43603 -117.64343 5997 ft 129 kts 311°
2026-04-26 02:35 33.44248 -117.65091 5995 ft 129 kts 310°
2026-04-26 02:35 33.44893 -117.65837 5994 ft 129 kts 310°
2026-04-26 02:35 33.45540 -117.66586 5996 ft 130 kts 311°
2026-04-26 02:35 33.46190 -117.67339 5995 ft 130 kts 311°
2026-04-26 02:36 33.46841 -117.68092 5993 ft 130 kts 310°
2026-04-26 02:36 33.47486 -117.68840 6005 ft 129 kts 311°
2026-04-26 02:36 33.48133 -117.69590 5998 ft 130 kts 311°
2026-04-26 02:36 33.48781 -117.70341 5999 ft 130 kts 311°
2026-04-26 02:37 33.49432 -117.71096 6001 ft 130 kts 310°
2026-04-26 02:37 33.50074 -117.71840 5999 ft 130 kts 311°
2026-04-26 02:37 33.50721 -117.72591 5995 ft 129 kts 311°
2026-04-26 02:37 33.51364 -117.73336 6000 ft 129 kts 310°
2026-04-26 02:38 33.52010 -117.74085 5999 ft 130 kts 311°
2026-04-26 02:38 33.52658 -117.74835 5997 ft 129 kts 310°
2026-04-26 02:38 33.53296 -117.75575 6002 ft 127 kts 311°
2026-04-26 02:38 33.53932 -117.76316 6002 ft 128 kts 310°
2026-04-26 02:39 33.54576 -117.77064 6001 ft 129 kts 311°
2026-04-26 02:39 33.55225 -117.77817 6001 ft 130 kts 311°
2026-04-26 02:39 33.55868 -117.78568 5995 ft 132 kts 310°
2026-04-26 02:39 33.56518 -117.79328 6000 ft 130 kts 311°
2026-04-26 02:40 33.57171 -117.80064 5999 ft 127 kts 311°
2026-04-26 02:40 33.57807 -117.80805 6001 ft 128 kts 310°
2026-04-26 02:40 33.58450 -117.81553 6001 ft 130 kts 314°
2026-04-26 02:40 33.59328 -117.81868 6000 ft 141 kts
2026-04-26 02:41 33.60244 -117.81383 6001 ft 147 kts 29°
2026-04-26 02:41 33.61092 -117.80699 6002 ft 145 kts 30°
2026-04-26 02:41 33.61880 -117.80023 6004 ft 134 kts 32°
2026-04-26 02:41 33.62636 -117.79387 6006 ft 131 kts 30°
2026-04-26 02:42 33.63373 -117.78767 6005 ft 129 kts 31°
2026-04-26 02:42 33.64096 -117.78157 6003 ft 128 kts 31°
2026-04-26 02:42 33.64819 -117.77537 5999 ft 128 kts 31°
2026-04-26 02:42 33.65546 -117.76921 5997 ft 127 kts 31°
2026-04-26 02:43 33.66979 -117.75705 5997 ft 126 kts 31°
2026-04-26 02:43 33.67691 -117.75091 5997 ft 126 kts 31°
2026-04-26 02:43 33.68399 -117.74482 5997 ft 125 kts 31°
2026-04-26 02:44 33.69107 -117.73873 5994 ft 125 kts 31°
2026-04-26 02:44 33.69811 -117.73270 6003 ft 125 kts 31°
2026-04-26 02:44 33.70521 -117.72674 6002 ft 127 kts 31°
2026-04-26 02:44 33.71247 -117.72065 6002 ft 128 kts 31°
2026-04-26 02:45 33.71980 -117.71452 6004 ft 129 kts 31°
2026-04-26 02:45 33.72717 -117.70824 6001 ft 130 kts 32°
2026-04-26 02:45 33.73456 -117.70199 6008 ft 130 kts 30°
2026-04-26 02:45 33.74196 -117.69572 5996 ft 129 kts 32°
2026-04-26 02:46 33.74924 -117.68959 5988 ft 126 kts 31°
2026-04-26 02:46 33.75634 -117.68351 5996 ft 125 kts 31°
2026-04-26 02:46 33.76356 -117.67735 5966 ft 131 kts 32°
2026-04-26 02:46 33.77081 -117.67132 5990 ft 128 kts 30°
2026-04-26 02:47 33.77814 -117.66516 5994 ft 129 kts 31°
2026-04-26 02:47 33.78556 -117.65902 5995 ft 130 kts 31°
2026-04-26 02:47 33.79309 -117.65297 5989 ft 131 kts 30°
2026-04-26 02:47 33.80061 -117.64688 5997 ft 130 kts 30°
2026-04-26 02:48 33.80805 -117.64085 5998 ft 127 kts 30°
2026-04-26 02:48 33.81542 -117.63487 6000 ft 128 kts 30°
2026-04-26 02:48 33.82301 -117.62939 5995 ft 127 kts 17°
2026-04-26 02:48 33.83073 -117.62394 5990 ft 128 kts 31°
2026-04-26 02:49 33.83797 -117.61797 5923 ft 127 kts 30°
2026-04-26 02:49 33.84596 -117.61314 5579 ft 135 kts 27°
2026-04-26 02:49 33.85370 -117.60747 5495 ft 133 kts 31°
2026-04-26 02:49 33.86108 -117.60160 5495 ft 122 kts 30°
2026-04-26 02:50 33.86804 -117.59597 5493 ft 121 kts 30°
2026-04-26 02:50 33.87502 -117.59032 5497 ft 121 kts 30°
2026-04-26 02:50 33.88208 -117.58462 5497 ft 123 kts 30°
2026-04-26 02:50 33.88914 -117.57879 5495 ft 123 kts 30°
2026-04-26 02:51 33.89625 -117.57296 5498 ft 124 kts 30°
2026-04-26 02:51 33.90344 -117.56711 5495 ft 125 kts 30°
2026-04-26 02:51 33.91127 -117.56349 5491 ft 119 kts 353°
2026-04-26 02:51 33.91841 -117.56674 5490 ft 106 kts 308°
2026-04-26 02:52 33.92163 -117.57423 5494 ft 99 kts 282°
2026-04-26 02:52 33.92368 -117.58206 5495 ft 99 kts 281°
2026-04-26 02:52 33.92571 -117.59002 5497 ft 100 kts 281°
2026-04-26 02:52 33.92640 -117.59814 5493 ft 97 kts 262°
2026-04-26 02:53 33.92571 -117.60621 5494 ft 97 kts 262°
2026-04-26 02:53 33.92513 -117.61435 5496 ft 98 kts 263°
2026-04-26 02:53 33.92465 -117.62258 5494 ft 98 kts 263°
2026-04-26 02:53 33.92420 -117.63085 5424 ft 102 kts 264°
2026-04-26 02:54 33.92384 -117.63896 5248 ft 95 kts 263°
2026-04-26 02:54 33.92345 -117.64688 5074 ft 95 kts 264°
2026-04-26 02:54 33.92307 -117.65481 4905 ft 97 kts 264°
2026-04-26 02:54 33.92269 -117.66273 4776 ft 93 kts 263°
2026-04-26 02:55 33.92233 -117.67046 4644 ft 91 kts 263°
2026-04-26 02:55 33.92197 -117.67789 4515 ft 88 kts 263°
2026-04-26 02:55 33.92162 -117.68523 4389 ft 88 kts 264°
2026-04-26 02:55 33.92127 -117.69268 4266 ft 92 kts 264°
2026-04-26 02:56 33.92089 -117.70052 4136 ft 95 kts 264°
2026-04-26 02:56 33.91999 -117.70833 3998 ft 93 kts 250°
2026-04-26 02:56 33.91660 -117.71480 3875 ft 92 kts 227°
2026-04-26 02:56 33.91127 -117.71910 3734 ft 91 kts 213°
2026-04-26 02:57 33.90578 -117.72263 3560 ft 91 kts 213°
2026-04-26 02:57 33.90023 -117.72640 3434 ft 94 kts 212°
2026-04-26 02:57 33.89414 -117.73004 3230 ft 101 kts 211°
2026-04-26 02:57 33.88818 -117.73369 3235 ft 91 kts 213°
2026-04-26 02:58 33.88248 -117.73710 3185 ft 92 kts 211°
2026-04-26 02:58 33.87687 -117.74078 3174 ft 92 kts 213°
2026-04-26 02:58 33.87121 -117.74444 3150 ft 95 kts 213°
2026-04-26 02:58 33.86524 -117.74838 3124 ft 98 kts 212°
2026-04-26 02:59 33.85918 -117.75237 3112 ft 100 kts 213°
2026-04-26 02:59 33.85315 -117.75653 3107 ft 98 kts 215°
2026-04-26 02:59 33.84733 -117.76057 3053 ft 96 kts 215°
2026-04-26 02:59 33.84169 -117.76431 3006 ft 94 kts 212°
2026-04-26 03:00 33.83597 -117.76764 2996 ft 86 kts 211°
2026-04-26 03:00 33.83067 -117.77075 2899 ft 85 kts 212°
2026-04-26 03:00 33.82568 -117.77362 2918 ft 76 kts 211°
2026-04-26 03:00 33.82130 -117.77625 2902 ft 68 kts 213°
2026-04-26 03:01 33.81714 -117.77872 2866 ft 67 kts 212°
2026-04-26 03:01 33.81295 -117.78129 2841 ft 69 kts 213°
2026-04-26 03:01 33.80870 -117.78407 2907 ft 68 kts 212°
2026-04-26 03:01 33.80466 -117.78676 2883 ft 68 kts 216°
2026-04-26 03:02 33.80027 -117.78967 2759 ft 75 kts 216°
2026-04-26 03:02 33.79558 -117.79267 2640 ft 76 kts 210°
2026-04-26 03:02 33.79098 -117.79560 2591 ft 74 kts 214°
2026-04-26 03:02 33.78629 -117.79862 2474 ft 77 kts 213°
2026-04-26 03:03 33.78157 -117.80138 2327 ft 78 kts 211°
2026-04-26 03:03 33.77678 -117.80462 2194 ft 75 kts 218°
2026-04-26 03:03 33.77203 -117.80776 1998 ft 77 kts 214°
2026-04-26 03:03 33.76741 -117.81048 1909 ft 75 kts 212°
2026-04-26 03:04 33.76294 -117.81342 1832 ft 74 kts 217°
2026-04-26 03:04 33.75831 -117.81635 1746 ft 73 kts 213°
2026-04-26 03:04 33.75371 -117.81909 1633 ft 74 kts 212°
2026-04-26 03:04 33.74933 -117.82233 1560 ft 74 kts 212°
2026-04-26 03:05 33.74453 -117.82498 1511 ft 74 kts 208°
2026-04-26 03:05 33.73997 -117.82815 1408 ft 78 kts 214°
2026-04-26 03:05 33.73529 -117.83094 1304 ft 74 kts 209°
2026-04-26 03:05 33.73075 -117.83375 1176 ft 76 kts 211°
2026-04-26 03:06 33.72635 -117.83676 1082 ft 72 kts 213°
2026-04-26 03:06 33.72169 -117.83985 952 ft 78 kts 206°
2026-04-26 03:06 33.71675 -117.84280 820 ft 81 kts 210°
2026-04-26 03:06 33.71204 -117.84571 836 ft 75 kts 211°
2026-04-26 03:07 33.70723 -117.84880 669 ft 80 kts 209°
2026-04-26 03:07 33.70255 -117.85165 593 ft 72 kts 211°
2026-04-26 03:07 33.69800 -117.85453 450 ft 75 kts 212°
2026-04-26 03:07 33.69342 -117.85754 348 ft 76 kts 206°
2026-04-26 03:08 33.68901 -117.86040 259 ft 68 kts 210°
2026-04-26 03:08 33.68494 -117.86300 179 ft 64 kts 211°
2026-04-26 03:08 33.68087 -117.86557 69 ft 69 kts 209°
2026-04-26 03:08 33.67737 -117.86780 54 ft 46 kts 208°
2026-04-26 03:09 33.67609 -117.86861 55 ft 5 kts 210°
2026-04-26 03:09 33.67551 -117.86886 56 ft 17 kts 179°
2026-04-26 03:09 33.67432 -117.86843 58 ft 0 kts 137°
2026-04-26 03:10 33.67430 -117.86840 59 ft 0 kts 133°
2026-04-26 03:10 33.67394 -117.86768 61 ft 22 kts 121°
2026-04-26 03:10 33.67405 -117.86639 56 ft 15 kts 86°
2026-04-26 03:11 33.67360 -117.86544 53 ft 6 kts 190°
2026-04-26 03:11 33.67347 -117.86531 53 ft 0 kts 46°